CAPE
0 0 0 0 0 0 0 0 0 0 0 0 0 0 0 0 0 0 0 0 0 0 0 0 0 0 0 0 0 0 0 0 0 0 0 0 1 0 1 27 23 11 7
0 0 0 0 0 0 0 0 0 0 0 0 0 0 0 0 0 0 0 0 0 0 0 0 0 0 0 0 0 0 0 0 1 5 4 0 0 1 0 15 61 30 15
0 0 0 0 0 0 0 0 0 0 0 0 0 0 0 0 0 0 0 0 0 0 0 0 0 0 0 0 0 0 0 0 0 7 8 5 3 10 4 4 47 40 50
0 0 0 0 0 0 0 0 0 0 0 0 0 0 0 0 0 0 0 0 0 0 0 0 0 0 0 0 0 0 0 0 1 0 7 8 8 31 16 6 0 13 65
0 0 0 0 0 0 0 0 0 0 0 0 0 0 0 0 0 0 0 0 0 0 0 0 0 0 0 0 0 0 0 1 0 2 2 1 3 14 22 13 2 0 1
0 0 0 0 0 0 0 0 0 0 0 0 0 0 0 0 0 0 0 0 0 0 0 0 0 0 0 0 0 0 0 0 0 0 0 0 1 1 4 5 5 2 0
0 0 0 0 0 0 0 0 0 0 0 0 0 0 0 0 0 0 0 0 0 0 0 0 0 0 0 0 0 0 0 0 0 0 0 0 0 0 0 1 2 5 0
0 0 0 0 0 0 0 0 0 0 0 0 0 0 0 0 0 0 0 0 0 0 0 0 0 0 0 0 0 0 0 0 0 0 0 0 0 0 0 0 2 0 0
0 0 0 0 0 0 0 0 0 0 0 0 0 0 0 0 0 0 0 0 0 0 0 0 0 0 0 0 0 0 0 0 0 0 0 0 0 0 0 0 0 0 0
0 0 0 0 0 0 0 0 0 0 0 0 0 0 0 0 0 0 0 0 0 0 0 0 0 0 0 0 0 0 0 0 0 0 0 0 0 0 0 0 0 0 0
0 0 0 0 0 0 0 0 0 0 0 0 0 0 0 0 0 0 0 0 0 0 0 0 0 0 0 0 0 0 0 0 0 0 0 0 0 0 0 0 0 0 0
0 0 0 0 0 0 0 0 0 0 0 0 0 0 0 0 0 0 0 0 0 0 0 0 0 0 0 0 0 0 0 0 0 0 0 0 0 0 0 0 0 0 0
0 0 0 0 0 0 0 0 0 0 0 0 0 0 0 0 0 0 0 0 0 0 0 0 0 0 0 0 0 0 0 0 0 0 0 0 0 0 0 0 0 0 0
0 0 0 0 0 0 0 0 0 0 0 0 0 0 0 0 0 0 0 0 0 0 0 0 0 0 0 0 0 0 0 0 0 0 0 0 0 0 0 0 0 0 0
0 0 0 0 0 0 0 0 0 0 0 0 0 0 0 0 0 0 0 0 0 0 0 0 0 0 0 0 0 0 0 0 0 0 0 0 0 0 0 0 0 0 0
0 0 0 0 0 0 0 0 0 0 0 0 0 0 0 0 0 0 0 0 0 0 0 0 0 0 0 0 0 0 0 0 0 0 0 0 0 0 0 0 0 0 0
0 0 0 0 0 0 0 0 0 0 0 0 0 0 0 0 0 0 0 0 0 0 0 0 0 0 0 0 0 0 0 0 0 0 0 0 0 0 0 0 0 0 0
0 0 0 0 0 0 0 0 0 0 0 0 0 0 0 0 0 0 0 0 0 0 0 0 0 0 0 0 0 0 0 0 0 0 0 0 0 0 0 0 0 0 0
0 0 0 0 0 0 0 0 0 0 0 0 0 0 0 0 0 0 0 0 0 0 0 0 0 0 0 0 0 0 0 0 0 0 0 0 0 0 0 0 0 0 0
0 0 0 0 0 0 0 0 0 0 0 0 0 0 0 0 0 0 0 0 0 0 0 0 0 0 0 0 0 0 0 0 0 0 0 0 0 0 0 0 1 1 0
0 0 0 0 0 0 0 0 0 0 0 0 0 0 0 0 0 0 0 0 0 0 0 0 0 0 0 0 0 0 0 0 0 0 0 0 0 0 0 0 0 0 1
1 0 0 0 0 0 0 0 0 0 0 0 0 0 0 0 0 0 0 0 0 0 0 0 0 0 0 0 0 0 0 0 0 0 0 0 0 0 0 0 0 1 2
0 0 0 0 0 0 0 0 0 0 0 0 0 0 0 0 0 0 0 0 0 0 0 0 0 0 0 0 0 0 0 0 0 0 0 1 0 0 0 0 0 1 0
0 0 0 0 0 0 0 0 0 0 0 0 0 0 0 0 0 0 0 0 0 0 0 0 0 0 0 0 0 0 0 0 0 0 0 1 3 5 1 0 0 0 0
0 0 0 0 0 0 0 0 0 0 0 0 0 0 0 0 0 0 0 0 0 0 0 0 0 0 0 0 0 0 0 0 2 13 9 6 3 1 0 0 0 0 0
0 0 0 0 0 0 0 0 0 0 0 0 0 0 0 0 0 0 0 0 0 0 0 0 0 0 0 3 3 6 10 7 11 17 2 0 1 1 0 0 0 0 0
CIN
-0 -0 -0 -0 -0 -0 -0 -0 -0 -0 -0 -0 -0 -0 -0 -0 -0 -0 -0 -0 -0 -0 -0 -0 -0 -0 -0 -0 -0 -0 -0 -0 -0 -0 -0 -0 -0 -0 -0 -3 -6 -7 -2
-0 -0 -0 -0 -0 -0 -0 -0 -0 -0 -0 -0 -0 -0 -0 -0 -0 -0 -0 -0 -0 -0 -0 -0 -0 -0 -0 -0 -0 -0 -0 -0 -0 -0 -0 -0 -0 -6 -0 -5 -2 -0 -1
-0 -0 -0 -0 -0 -0 -0 -0 -0 -0 -0 -0 -0 -0 -0 -0 -0 -0 -0 -0 -0 -0 -0 -0 -0 -0 -0 -0 -0 -0 -0 -0 -0 -0 -0 -0 -0 -0 -2 -1 -1 -1 -1
-0 -0 -0 -0 -0 -0 -0 -0 -0 -0 -0 -0 -0 -0 -0 -0 -0 -0 -0 -0 -0 -0 -0 -0 -0 -0 -0 -0 -0 -0 -0 -0 -0 -0 -1 -0 -1 -0 -0 -0 -0 -6 -2
-0 -0 -0 -0 -0 -0 -0 -0 -0 -0 -0 -0 -0 -0 -0 -0 -0 -0 -0 -0 -0 -0 -0 -0 -0 -0 -0 -0 -0 -0 -0 -0 -0 -0 -0 -0 -0 -3 -8 -0 -0 -0 -9
-0 -0 -0 -0 -0 -0 -0 -0 -0 -0 -0 -0 -0 -0 -0 -0 -0 -0 -0 -0 -0 -0 -0 -0 -0 -0 -0 -0 -0 -0 -0 -0 -0 -0 -0 -0 -0 -0 -0 -0 -0 -0 -0
-0 -0 -0 -0 -0 -0 -0 -0 -0 -0 -0 -0 -0 -0 -0 -0 -0 -0 -0 -0 -0 -0 -0 -0 -0 -0 -0 -0 -0 -0 -0 -0 -0 -0 -0 -0 -0 -0 -0 -0 -0 -0 -0
-0 -0 -0 -0 -0 -0 -0 -0 -0 -0 -0 -0 -0 -0 -0 -0 -0 -0 -0 -0 -0 -0 -0 -0 -0 -0 -0 -0 -0 -0 -0 -0 -0 -0 -0 -0 -0 -0 -0 -0 -0 -0 -0
-0 -0 -0 -0 -0 -0 -0 -0 -0 -0 -0 -0 -0 -0 -0 -0 -0 -0 -0 -0 -0 -0 -0 -0 -0 -0 -0 -0 -0 -0 -0 -0 -0 -0 -0 -0 -0 -0 -0 -0 -0 -0 -0
-0 -0 -0 -0 -0 -0 -0 -0 -0 -0 -0 -0 -0 -0 -0 -0 -0 -0 -0 -0 -0 -0 -0 -0 -0 -0 -0 -0 -0 -0 -0 -0 -0 -0 -0 -0 -0 -0 -0 -0 -0 -0 -0
-0 -0 -0 -0 -0 -0 -0 -0 -0 -0 -0 -0 -0 -0 -0 -0 -0 -0 -0 -0 -0 -0 -0 -0 -0 -0 -0 -0 -0 -0 -0 -0 -0 -0 -0 -0 -0 -0 -0 -0 -0 -0 -0
-0 -0 -0 -0 -0 -0 -0 -0 -0 -0 -0 -0 -0 -0 -0 -0 -0 -0 -0 -0 -0 -0 -0 -0 -0 -0 -0 -0 -0 -0 -0 -0 -0 -0 -0 -0 -0 -0 -0 -0 -0 -0 -0
-0 -0 -0 -0 -0 -0 -0 -0 -0 -0 -0 -0 -0 -0 -0 -0 -0 -0 -0 -0 -0 -0 -0 -0 -0 -0 -0 -0 -0 -0 -0 -0 -0 -0 -0 -0 -0 -0 -0 -0 -0 -0 -0
-0 -0 -0 -0 -0 -0 -0 -0 -0 -0 -0 -0 -0 -0 -0 -0 -0 -0 -0 -0 -0 -0 -0 -0 -0 -0 -0 -0 -0 -0 -0 -0 -0 -0 -0 -0 -0 -0 -0 -0 -0 -0 -0
-0 -0 -0 -0 -0 -0 -0 -0 -0 -0 -0 -0 -0 -0 -0 -0 -0 -0 -0 -0 -0 -0 -0 -0 -0 -0 -0 -0 -0 -0 -0 -0 -0 -0 -0 -0 -0 -0 -0 -0 -0 -0 -0
-0 -0 -0 -0 -0 -0 -0 -0 -0 -0 -0 -0 -0 -0 -0 -0 -0 -0 -0 -0 -0 -0 -0 -0 -0 -0 -0 -0 -0 -0 -0 -0 -0 -0 -0 -0 -0 -0 -0 -0 -0 -0 -0
-0 -0 -0 -0 -0 -0 -0 -0 -0 -0 -0 -0 -0 -0 -0 -0 -0 -0 -0 -0 -0 -0 -0 -0 -0 -0 -0 -0 -0 -0 -0 -0 -0 -0 -0 -0 -0 -0 -0 -0 -0 -0 -0
-0 -0 -0 -0 -0 -0 -0 -0 -0 -0 -0 -0 -0 -0 -0 -0 -0 -0 -0 -0 -0 -0 -0 -0 -0 -0 -0 -0 -0 -0 -0 -0 -0 -0 -0 -0 -0 -0 -0 -0 -0 -0 -0
-0 -0 -0 -0 -0 -0 -0 -0 -0 -0 -0 -0 -0 -0 -0 -0 -0 -0 -0 -0 -0 -0 -0 -0 -0 -0 -0 -0 -0 -0 -0 -0 -0 -0 -0 -0 -0 -0 -0 -0 -0 -0 -0
-0 -0 -0 -0 -0 -0 -0 -0 -0 -0 -0 -0 -0 -0 -0 -0 -0 -0 -0 -0 -0 -0 -0 -0 -0 -0 -0 -0 -0 -0 -0 -0 -0 -0 -0 -0 -0 -0 -0 -0 -0 -0 -0
-0 -0 -0 -0 -0 -0 -0 -0 -0 -0 -0 -0 -0 -0 -0 -0 -0 -0 -0 -0 -0 -0 -0 -0 -0 -0 -0 -0 -0 -0 -0 -0 -0 -0 -0 -0 -0 -0 -0 -0 -0 -0 -0
-0 -0 -0 -0 -0 -0 -0 -0 -0 -0 -0 -0 -0 -0 -0 -0 -0 -0 -0 -0 -0 -0 -0 -0 -0 -0 -0 -0 -0 -0 -0 -0 -0 -0 -0 -0 -0 -0 -0 -0 -0 -0 -0
-0 -0 -0 -0 -0 -0 -0 -0 -0 -0 -0 -0 -0 -0 -0 -0 -0 -0 -0 -0 -0 -0 -0 -0 -0 -0 -0 -0 -0 -0 -0 -0 -0 -0 -0 -0 -0 -0 -0 -0 -0 -0 -0
-0 -0 -0 -0 -0 -0 -0 -0 -0 -0 -0 -0 -0 -0 -0 -0 -0 -0 -0 -0 -0 -0 -0 -0 -0 -0 -0 -0 -0 -0 -0 -0 -0 -0 -0 -0 -0 -0 -0 -0 -0 -0 -0
-0 -0 -0 -0 -0 -0 -0 -0 -0 -0 -0 -0 -0 -0 -0 -0 -0 -0 -0 -0 -0 -0 -0 -0 -0 -0 -0 -0 -0 -0 -0 -0 -0 -1 -1 -1 -1 -1 -1 -0 -0 -0 -0
-0 -0 -0 -0 -0 -0 -0 -0 -0 -0 -0 -0 -0 -0 -0 -0 -0 -0 -0 -0 -0 -0 -0 -0 -0 -0 -0 -0 -0 -0 -0 -0 -0 -0 -2 -0 -0 -1 -1 -1 -0 -0 -0
Wind_Speed
7 7 7 7 6 5 3 2 3 3 3 3 4 4 4 4 3 4 5 6 6 6 7 6 6 6 6 7 7 7 8 7 7 7 7 6 4 1 5 3 4 7 8
8 8 8 6 4 4 4 3 3 4 3 3 4 3 4 3 4 4 5 5 7 7 7 7 7 7 6 7 7 7 6 6 6 6 7 5 4 4 7 3 2 6 5
10 9 8 7 6 5 4 4 4 4 4 4 3 3 3 4 3 5 6 6 8 7 7 8 7 7 6 5 6 6 7 6 6 6 3 4 3 8 3 8 4 5 4
9 8 7 6 6 6 4 4 4 3 3 4 4 5 4 5 5 5 5 6 7 7 6 7 7 7 6 7 6 5 5 6 6 6 3 5 5 3 5 5 11 7 5
8 8 7 7 6 5 4 3 2 3 3 4 5 5 6 5 5 6 8 8 7 7 6 6 7 7 5 6 6 6 6 5 6 6 6 6 6 7 3 8 8 8 8
7 8 7 8 6 5 4 2 2 3 4 4 5 5 6 7 6 7 7 6 6 5 7 8 7 6 6 6 6 6 6 6 6 6 6 6 6 7 6 8 9 9 8
10 9 10 8 7 6 4 2 1 3 4 4 5 6 6 7 7 8 6 8 6 6 7 8 7 6 6 6 6 6 7 7 6 6 6 5 6 6 6 7 8 8 8
9 10 9 8 7 5 4 2 2 3 4 5 6 5 7 5 6 7 7 6 6 6 9 8 8 8 8 7 7 6 6 6 5 7 6 6 6 6 5 6 7 8 6
9 10 9 8 7 5 3 1 2 3 4 5 5 6 6 6 6 7 7 6 7 7 8 9 9 9 8 8 7 6 7 7 6 6 6 6 5 5 5 5 5 6 6
11 10 10 9 6 4 3 1 1 2 3 4 4 4 5 5 5 5 7 7 8 8 9 9 9 9 8 8 7 6 6 7 5 5 7 6 5 5 4 4 5 5 7
11 10 9 8 7 5 4 2 2 2 2 3 4 4 4 5 5 5 6 7 8 8 8 9 9 9 9 9 8 8 7 7 7 7 7 7 7 5 5 4 4 5 6
10 10 10 9 8 7 5 4 3 2 1 3 4 4 4 5 6 6 7 7 8 8 8 8 9 9 9 9 9 8 8 7 7 7 7 7 6 5 5 5 6 6 6
8 9 10 11 10 8 7 6 4 2 1 3 4 4 5 6 7 8 8 8 8 9 8 8 8 9 9 9 8 8 8 7 7 7 7 8 7 6 5 6 6 5 5
9 11 11 12 11 8 7 6 4 3 2 3 3 5 5 6 6 7 8 8 8 8 8 9 9 9 9 9 8 9 9 8 7 6 6 6 7 7 6 6 6 6 6
10 10 11 11 10 9 8 6 4 3 3 4 4 5 5 6 6 7 7 7 7 7 8 8 8 7 7 6 8 9 9 9 8 7 6 5 5 8 9 7 7 7 6
11 9 9 10 10 9 7 4 4 4 4 5 5 5 5 6 7 7 7 7 7 8 8 8 8 6 6 5 7 9 8 9 8 8 7 7 6 7 9 12 14 13 8
12 10 6 7 8 7 3 5 4 3 5 5 6 5 6 7 8 8 8 8 8 8 8 8 8 8 8 8 9 11 8 9 9 8 8 7 6 6 7 8 10 13 17
12 10 5 5 5 5 5 5 4 5 6 6 7 7 7 7 8 8 8 9 8 8 8 8 8 8 8 11 10 12 9 9 9 9 9 8 9 7 5 7 9 9 9
12 11 10 8 7 7 6 6 7 7 7 8 8 8 8 8 9 8 9 9 8 8 8 8 9 10 10 12 10 9 8 9 10 9 8 7 8 11 8 7 10 11 10
12 11 10 10 9 9 7 8 8 8 8 8 8 8 8 8 9 9 9 9 9 9 8 10 10 13 12 15 13 11 7 10 8 9 9 10 10 12 12 8 9 11 10
11 11 10 10 10 7 6 7 9 9 8 7 8 9 9 9 10 10 9 10 10 10 11 12 11 13 12 13 15 14 8 9 9 8 8 8 11 8 11 14 9 12 12
12 11 10 10 9 8 8 10 10 9 8 8 8 10 10 9 8 9 9 10 10 11 12 12 11 10 11 12 12 14 17 17 11 11 9 10 13 10 13 15 19 20 17
12 10 11 11 10 10 9 10 10 10 10 9 10 11 11 10 10 10 10 9 10 10 10 10 10 9 8 8 14 17 18 18 13 10 13 17 14 18 17 22 19 15 7
13 12 12 13 13 11 10 10 10 10 11 12 12 11 11 12 11 9 9 9 9 10 10 10 10 10 9 9 9 8 8 11 10 10 11 13 15 17 17 17 14 8 8
12 11 12 12 14 14 13 12 11 12 12 13 12 11 10 11 11 10 10 10 11 11 10 10 9 10 10 10 14 14 10 9 11 14 10 10 9 9 9 9 9 8 7
13 13 14 14 15 15 15 14 14 14 15 13 10 9 9 9 10 10 10 15 18 21 22 24 19 13 22 26 26 26 24 24 23 12 10 11 11 10 10 10 10 7 10
Wind_Direction
132 148 137 134 127 129 129 55 356 3 335 349 344 338 355 330 324 351 334 324 328 321 319 314 312 317 319 322 318 324 326 325 330 318 328 300 298 234 328 23 13 355 354
159 152 147 139 133 98 81 40 17 3 8 345 349 325 327 325 331 305 311 325 321 322 309 313 310 309 312 313 320 329 328 320 347 335 303 340 309 23 310 354 5 16 2
154 153 152 137 130 93 74 71 49 27 18 355 315 309 268 249 280 347 330 339 322 322 310 308 304 304 303 303 315 319 324 322 319 344 313 328 327 329 346 323 334 15 28
148 148 142 137 116 108 103 91 71 35 24 8 340 342 331 329 337 327 322 321 335 334 324 312 305 305 304 300 301 311 319 312 312 321 311 305 273 306 314 320 319 5 342
157 150 144 137 129 128 116 120 92 53 22 9 4 347 346 338 334 334 336 337 342 342 340 331 319 309 303 298 299 301 299 302 298 305 314 307 299 269 232 305 325 322 333
154 152 147 152 149 150 146 134 102 41 19 8 5 0 350 343 342 345 338 344 332 336 346 344 323 311 301 299 299 297 287 280 286 289 290 291 298 309 309 299 308 313 318
173 167 169 171 170 162 151 133 44 34 2 5 6 2 357 345 345 348 342 336 337 340 344 334 329 320 313 303 296 291 285 277 275 282 285 286 282 290 299 301 303 311 318
182 182 179 180 178 166 160 157 34 13 357 5 4 1 2 356 346 349 339 333 334 333 333 329 323 319 317 311 301 288 278 274 274 276 275 284 285 286 289 295 308 309 309
193 193 190 195 184 183 175 30 358 356 11 4 358 7 3 359 352 345 344 345 337 333 335 329 328 327 322 315 306 295 295 294 292 284 281 278 280 285 288 290 293 296 307
204 200 199 199 195 186 178 205 284 350 6 0 5 3 358 356 344 343 349 345 341 340 335 336 333 329 327 324 319 306 303 302 295 286 283 285 284 286 286 286 286 284 284
214 211 209 204 201 198 201 217 252 308 349 359 356 352 349 341 334 337 341 337 327 335 333 332 329 331 334 335 329 325 318 312 305 299 290 284 282 281 283 282 272 275 278
225 221 215 205 208 213 204 215 223 255 340 353 341 335 323 324 323 328 325 320 318 320 321 320 321 326 330 332 332 332 330 322 316 312 307 299 293 280 276 274 273 272 278
242 233 221 215 217 210 208 210 214 239 304 329 324 319 320 322 323 322 321 317 316 316 315 318 319 320 322 323 327 327 324 322 319 316 313 309 304 292 281 274 274 270 274
256 244 231 222 219 213 209 208 210 211 247 279 295 299 303 311 309 311 310 313 315 312 319 320 317 318 320 319 331 326 322 319 315 315 303 297 297 293 291 279 273 274 276
301 260 238 229 218 212 208 204 209 224 260 269 276 285 297 297 300 300 304 305 307 304 304 306 305 311 313 310 334 319 313 310 310 305 300 294 286 288 278 281 282 285 274
333 296 249 242 229 224 220 199 228 234 245 269 282 290 290 293 292 293 296 296 293 292 298 293 294 289 287 306 309 308 305 303 304 305 308 304 289 270 270 270 264 260 271
1 346 303 255 250 241 243 248 257 258 258 269 274 278 277 279 283 289 291 291 292 293 288 288 290 291 292 292 297 303 296 298 291 295 296 299 296 275 276 283 269 257 252
354 350 331 295 281 271 269 271 263 263 265 274 280 276 273 276 284 286 283 283 284 286 286 284 281 283 283 273 272 289 287 281 284 282 285 285 292 291 299 297 293 283 275
339 336 328 321 310 288 281 283 274 269 263 263 265 270 277 280 283 284 286 287 288 286 285 283 284 277 277 271 256 269 274 272 274 275 276 271 274 287 306 296 286 284 282
342 339 333 322 306 302 322 295 287 284 281 283 288 293 288 280 278 281 284 283 280 275 278 278 275 275 276 277 259 254 268 274 275 280 277 270 255 265 276 286 290 284 286
338 335 324 314 305 314 304 286 285 279 292 295 289 285 284 281 275 277 278 280 280 277 272 273 275 275 270 274 273 265 258 261 270 268 270 269 266 247 273 280 275 275 290
321 319 311 308 309 298 286 288 289 295 292 288 287 285 284 281 277 271 271 273 275 274 273 272 272 269 271 268 265 261 250 256 263 263 265 265 266 257 266 277 275 277 282
316 313 309 304 296 291 286 285 291 299 298 290 282 280 279 277 275 270 262 263 265 267 272 275 274 274 274 273 270 267 264 260 258 258 265 274 281 285 285 274 265 271 265
317 317 310 300 295 292 287 279 278 282 283 281 279 277 275 276 280 278 270 265 266 267 269 268 270 274 278 278 279 279 276 272 259 256 258 251 253 261 268 275 272 254 245
304 303 301 292 290 289 287 289 290 289 283 273 272 274 273 270 271 268 272 271 270 271 280 280 282 282 277 272 279 280 282 281 278 289 284 277 271 267 263 260 260 260 253
303 302 300 297 290 288 286 286 284 280 276 271 269 270 271 270 270 269 270 262 260 266 265 264 260 267 269 277 277 279 282 282 282 281 271 270 268 263 261 259 258 251 258